Year,Month,Day,Hour,Minute,Value (Times are PST for temperature in C)
2015,05,04,00,00,9.60
2015,05,04,00,01,9.60
2015,05,04,00,02,9.60
2015,05,04,00,03,9.60
2015,05,04,00,04,9.60
2015,05,04,00,05,9.60
2015,05,04,00,06,9.60
2015,05,04,00,07,9.60
2015,05,04,00,08,9.60
2015,05,04,00,09,9.60
2015,05,04,00,10,9.60
2015,05,04,00,11,9.60
2015,05,04,00,12,9.60
2015,05,04,00,13,9.60
2015,05,04,00,14,9.60
2015,05,04,00,15,9.60
2015,05,04,00,16,9.60
2015,05,04,00,17,9.60
2015,05,04,00,18,9.60
2015,05,04,00,19,9.70
2015,05,04,00,20,9.70
2015,05,04,00,21,9.70
2015,05,04,00,22,9.70
2015,05,04,00,23,9.70
2015,05,04,00,24,9.70
2015,05,04,00,25,9.70
2015,05,04,00,26,9.70
2015,05,04,00,27,9.70
2015,05,04,00,28,9.70
2015,05,04,00,29,9.70
2015,05,04,00,30,9.70
2015,05,04,00,31,9.70
2015,05,04,00,32,9.70
2015,05,04,00,33,9.70
2015,05,04,00,34,9.70
2015,05,04,00,35,9.70
2015,05,04,00,36,9.70
2015,05,04,00,37,9.70
2015,05,04,00,38,9.70
2015,05,04,00,39,9.70
2015,05,04,00,40,9.70
2015,05,04,00,41,9.70
2015,05,04,00,42,9.70
2015,05,04,00,43,9.70
2015,05,04,00,44,9.70
2015,05,04,00,45,9.70
2015,05,04,00,46,9.70
2015,05,04,00,47,9.70
2015,05,04,00,48,9.70
2015,05,04,00,49,9.70
2015,05,04,00,50,9.70
2015,05,04,00,51,9.70
2015,05,04,00,52,9.70
2015,05,04,00,53,9.70
2015,05,04,00,54,9.70
2015,05,04,00,55,9.70
2015,05,04,00,56,9.70
2015,05,04,00,57,9.60
2015,05,04,00,58,9.60
2015,05,04,00,59,9.60
2015,05,04,01,00,9.60
2015,05,04,01,01,9.60
2015,05,04,01,02,9.60
2015,05,04,01,03,9.60
2015,05,04,01,04,9.60
2015,05,04,01,05,9.60
2015,05,04,01,06,9.60
2015,05,04,01,07,9.60
2015,05,04,01,08,9.60
2015,05,04,01,09,9.60
2015,05,04,01,10,9.60
2015,05,04,01,11,9.60
2015,05,04,01,12,9.60
2015,05,04,01,13,9.50
2015,05,04,01,14,9.50
2015,05,04,01,15,9.50
2015,05,04,01,16,9.50
2015,05,04,01,17,9.50
2015,05,04,01,18,9.50
2015,05,04,01,19,9.50
2015,05,04,01,20,9.50
2015,05,04,01,21,9.50
2015,05,04,01,22,9.50
2015,05,04,01,23,9.50
2015,05,04,01,24,9.50
2015,05,04,01,25,9.40
2015,05,04,01,26,9.50
2015,05,04,01,27,9.40
2015,05,04,01,28,9.40
2015,05,04,01,29,9.40
2015,05,04,01,30,9.40
2015,05,04,01,31,9.40
2015,05,04,01,32,9.40
2015,05,04,01,33,9.40
2015,05,04,01,34,9.40
2015,05,04,01,35,9.40
2015,05,04,01,36,9.40
2015,05,04,01,37,9.40
2015,05,04,01,38,9.40
2015,05,04,01,39,9.40
2015,05,04,01,40,9.40
2015,05,04,01,41,9.30
2015,05,04,01,42,9.30
2015,05,04,01,43,9.30
2015,05,04,01,44,9.30
2015,05,04,01,45,9.30
2015,05,04,01,46,9.30
2015,05,04,01,47,9.30
2015,05,04,01,48,9.30
2015,05,04,01,49,9.30
2015,05,04,01,50,9.30
2015,05,04,01,51,9.30
2015,05,04,01,52,9.30
2015,05,04,01,53,9.20
2015,05,04,01,54,9.20
2015,05,04,01,55,9.20
2015,05,04,01,56,9.20
2015,05,04,01,57,9.20
2015,05,04,01,58,9.20
2015,05,04,01,59,9.20
2015,05,04,02,00,9.20
2015,05,04,02,01,9.20
2015,05,04,02,02,9.20
2015,05,04,02,03,9.20
2015,05,04,02,04,9.20
2015,05,04,02,05,9.20
2015,05,04,02,06,9.20
2015,05,04,02,07,9.20
2015,05,04,02,08,9.20
2015,05,04,02,09,9.20
2015,05,04,02,10,9.20
2015,05,04,02,11,9.20
2015,05,04,02,12,9.20
2015,05,04,02,13,9.20
2015,05,04,02,14,9.20
2015,05,04,02,15,9.10
2015,05,04,02,16,9.10
2015,05,04,02,17,9.10
2015,05,04,02,18,9.10
2015,05,04,02,19,9.10
2015,05,04,02,20,9.10
2015,05,04,02,21,9.10
2015,05,04,02,22,9.00
2015,05,04,02,23,9.00
2015,05,04,02,24,9.00
2015,05,04,02,25,9.00
2015,05,04,02,26,9.00
2015,05,04,02,27,9.00
2015,05,04,02,28,9.00
2015,05,04,02,29,9.00
2015,05,04,02,30,8.90
2015,05,04,02,31,8.90
2015,05,04,02,32,8.90
2015,05,04,02,33,8.90
2015,05,04,02,34,8.90
2015,05,04,02,35,8.90
2015,05,04,02,36,8.90
2015,05,04,02,37,8.90
2015,05,04,02,38,8.90
2015,05,04,02,39,8.90
2015,05,04,02,40,8.80
2015,05,04,02,41,8.80
2015,05,04,02,42,8.80
2015,05,04,02,43,8.80
2015,05,04,02,44,8.80
2015,05,04,02,45,8.80
2015,05,04,02,46,8.80
2015,05,04,02,47,8.80
2015,05,04,02,48,8.80
2015,05,04,02,49,8.80
2015,05,04,02,50,8.80
2015,05,04,02,51,8.80
2015,05,04,02,52,8.80
2015,05,04,02,53,8.70
2015,05,04,02,54,8.70
2015,05,04,02,55,8.70
2015,05,04,02,56,8.70
2015,05,04,02,57,8.70
2015,05,04,02,58,8.70
2015,05,04,02,59,8.70
2015,05,04,03,00,8.70
2015,05,04,03,01,8.70
2015,05,04,03,02,8.60
2015,05,04,03,03,8.60
2015,05,04,03,04,8.60
2015,05,04,03,05,8.60
2015,05,04,03,06,8.60
2015,05,04,03,07,8.60
2015,05,04,03,08,8.60
2015,05,04,03,09,8.50
2015,05,04,03,10,8.50
2015,05,04,03,11,8.50
2015,05,04,03,12,8.40
2015,05,04,03,13,8.40
2015,05,04,03,14,8.40
2015,05,04,03,15,8.40
2015,05,04,03,16,8.30
2015,05,04,03,17,8.30
2015,05,04,03,18,8.30
2015,05,04,03,19,8.30
2015,05,04,03,20,8.30
2015,05,04,03,21,8.30
2015,05,04,03,22,8.30
2015,05,04,03,23,8.30
2015,05,04,03,24,8.30
2015,05,04,03,25,8.30
2015,05,04,03,26,8.30
2015,05,04,03,27,8.30
2015,05,04,03,28,8.30
2015,05,04,03,29,8.30
2015,05,04,03,30,8.30
2015,05,04,03,31,8.30
2015,05,04,03,32,8.30
2015,05,04,03,33,8.30
2015,05,04,03,34,8.30
2015,05,04,03,35,8.30
2015,05,04,03,36,8.30
2015,05,04,03,37,8.30
2015,05,04,03,38,8.30
2015,05,04,03,39,8.30
2015,05,04,03,40,8.40
2015,05,04,03,41,8.40
2015,05,04,03,42,8.40
2015,05,04,03,43,8.40
2015,05,04,03,44,8.40
2015,05,04,03,45,8.40
2015,05,04,03,46,8.40
2015,05,04,03,47,8.40
2015,05,04,03,48,8.50
2015,05,04,03,49,8.50
2015,05,04,03,50,8.50
2015,05,04,03,51,8.50
2015,05,04,03,52,8.60
2015,05,04,03,53,8.60
2015,05,04,03,54,8.60
2015,05,04,03,55,8.60
2015,05,04,03,56,8.70
2015,05,04,03,57,8.70
2015,05,04,03,58,8.70
2015,05,04,03,59,8.70
2015,05,04,04,00,8.80
2015,05,04,04,01,8.80
2015,05,04,04,02,8.80
2015,05,04,04,03,8.80
2015,05,04,04,04,8.80
2015,05,04,04,05,8.80
2015,05,04,04,06,8.80
2015,05,04,04,07,8.90
2015,05,04,04,08,8.90
2015,05,04,04,09,8.90
2015,05,04,04,10,8.90
2015,05,04,04,11,8.90
2015,05,04,04,12,8.90
2015,05,04,04,13,8.90
2015,05,04,04,14,8.90
2015,05,04,04,15,8.90
2015,05,04,04,16,8.90
2015,05,04,04,17,8.90
2015,05,04,04,18,8.90
2015,05,04,04,19,8.90
2015,05,04,04,20,8.90
2015,05,04,04,21,9.00
2015,05,04,04,22,9.00
2015,05,04,04,23,8.90
2015,05,04,04,24,9.00
2015,05,04,04,25,9.00
2015,05,04,04,26,9.00
2015,05,04,04,27,9.00
2015,05,04,04,28,9.00
2015,05,04,04,29,9.00
2015,05,04,04,30,9.00
2015,05,04,04,31,9.00
2015,05,04,04,32,9.00
2015,05,04,04,33,9.00
2015,05,04,04,34,9.00
2015,05,04,04,35,9.00
2015,05,04,04,36,9.00
2015,05,04,04,37,9.00
2015,05,04,04,38,9.00
2015,05,04,04,39,9.00
2015,05,04,04,40,9.00
2015,05,04,04,41,9.00
2015,05,04,04,42,9.00
2015,05,04,04,43,9.00
2015,05,04,04,44,9.00
2015,05,04,04,45,9.00
2015,05,04,04,46,9.00
2015,05,04,04,47,9.00
2015,05,04,04,48,8.90
2015,05,04,04,49,8.90
2015,05,04,04,50,9.00
2015,05,04,04,51,9.00
2015,05,04,04,52,8.90
2015,05,04,04,53,9.00
2015,05,04,04,54,9.00
2015,05,04,04,55,9.00
2015,05,04,04,56,9.00
2015,05,04,04,57,9.00
2015,05,04,04,58,9.00
2015,05,04,04,59,9.00
2015,05,04,05,00,9.00
2015,05,04,05,01,9.00
2015,05,04,05,02,9.00
2015,05,04,05,03,9.00
2015,05,04,05,04,9.00
2015,05,04,05,05,9.00
2015,05,04,05,06,9.00
2015,05,04,05,07,9.00
2015,05,04,05,08,9.00
2015,05,04,05,09,9.00
2015,05,04,05,10,9.00
2015,05,04,05,11,9.00
2015,05,04,05,12,9.00
2015,05,04,05,13,9.00
2015,05,04,05,14,9.00
2015,05,04,05,15,9.00
2015,05,04,05,16,9.00
2015,05,04,05,17,9.00
2015,05,04,05,18,9.00
2015,05,04,05,19,9.00
2015,05,04,05,20,9.00
2015,05,04,05,21,9.00
2015,05,04,05,22,9.10
2015,05,04,05,23,9.10
2015,05,04,05,24,9.10
2015,05,04,05,25,9.10
2015,05,04,05,26,9.10
2015,05,04,05,27,9.10
2015,05,04,05,28,9.10
2015,05,04,05,29,9.10
2015,05,04,05,30,9.10
2015,05,04,05,31,9.10
2015,05,04,05,32,9.10
2015,05,04,05,33,9.10
2015,05,04,05,34,9.10
2015,05,04,05,35,9.10
2015,05,04,05,36,9.10
2015,05,04,05,37,9.10
2015,05,04,05,38,9.10
2015,05,04,05,39,9.10
2015,05,04,05,40,9.10
2015,05,04,05,41,9.10
2015,05,04,05,42,9.10
2015,05,04,05,43,9.10
2015,05,04,05,44,9.10
2015,05,04,05,45,9.10
2015,05,04,05,46,9.10
2015,05,04,05,47,9.10
2015,05,04,05,48,9.10
2015,05,04,05,49,9.10
2015,05,04,05,50,9.10
2015,05,04,05,51,9.10
2015,05,04,05,52,9.10
2015,05,04,05,53,9.10
2015,05,04,05,54,9.10
2015,05,04,05,55,9.10
2015,05,04,05,56,9.10
2015,05,04,05,57,9.10
2015,05,04,05,58,9.10
2015,05,04,05,59,9.10
2015,05,04,06,00,9.10
2015,05,04,06,01,9.10
2015,05,04,06,02,9.10
2015,05,04,06,03,9.10
2015,05,04,06,04,9.10
2015,05,04,06,05,9.10
2015,05,04,06,06,9.10
2015,05,04,06,07,9.10
2015,05,04,06,08,9.10
2015,05,04,06,09,9.10
2015,05,04,06,10,9.10
2015,05,04,06,11,9.10
2015,05,04,06,12,9.10
2015,05,04,06,13,9.10
2015,05,04,06,14,9.10
2015,05,04,06,15,9.10
2015,05,04,06,16,9.10
2015,05,04,06,17,9.10
2015,05,04,06,18,9.10
2015,05,04,06,19,9.10
2015,05,04,06,20,9.20
2015,05,04,06,21,9.20
2015,05,04,06,22,9.20
2015,05,04,06,23,9.20
2015,05,04,06,24,9.10
2015,05,04,06,25,9.10
2015,05,04,06,26,9.20
2015,05,04,06,27,9.20
2015,05,04,06,28,9.20
2015,05,04,06,29,9.20
2015,05,04,06,30,9.20
2015,05,04,06,31,9.20
2015,05,04,06,32,9.20
2015,05,04,06,33,9.20
2015,05,04,06,34,9.20
2015,05,04,06,35,9.20
2015,05,04,06,36,9.30
2015,05,04,06,37,9.30
2015,05,04,06,38,9.30
2015,05,04,06,39,9.30
2015,05,04,06,40,9.30
2015,05,04,06,41,9.30
2015,05,04,06,42,9.30
2015,05,04,06,43,9.30
2015,05,04,06,44,9.30
2015,05,04,06,45,9.30
2015,05,04,06,46,9.30
2015,05,04,06,47,9.30
2015,05,04,06,48,9.30
2015,05,04,06,49,9.30
2015,05,04,06,50,9.30
2015,05,04,06,51,9.30
2015,05,04,06,52,9.30
2015,05,04,06,53,9.30
2015,05,04,06,54,9.30
2015,05,04,06,55,9.30
2015,05,04,06,56,9.30
2015,05,04,06,57,9.30
2015,05,04,06,58,9.30
2015,05,04,06,59,9.30
2015,05,04,07,00,9.30
2015,05,04,07,01,9.30
2015,05,04,07,02,9.30
2015,05,04,07,03,9.30
2015,05,04,07,04,9.30
2015,05,04,07,05,9.30
2015,05,04,07,06,9.30
2015,05,04,07,07,9.30
2015,05,04,07,08,9.30
2015,05,04,07,09,9.30
2015,05,04,07,10,9.30
2015,05,04,07,11,9.30
2015,05,04,07,12,9.30
2015,05,04,07,13,9.30
2015,05,04,07,14,9.30
2015,05,04,07,15,9.30
2015,05,04,07,16,9.30
2015,05,04,07,17,9.30
2015,05,04,07,18,9.30
2015,05,04,07,19,9.30
2015,05,04,07,20,9.30
2015,05,04,07,21,9.30
2015,05,04,07,22,9.30
2015,05,04,07,23,9.30
2015,05,04,07,24,9.30
2015,05,04,07,25,9.30
2015,05,04,07,26,9.30
2015,05,04,07,27,9.30
2015,05,04,07,28,9.30
2015,05,04,07,29,9.30
2015,05,04,07,30,9.30
2015,05,04,07,31,9.30
2015,05,04,07,32,9.30
2015,05,04,07,33,9.30
2015,05,04,07,34,9.30
2015,05,04,07,35,9.30
2015,05,04,07,36,9.30
2015,05,04,07,37,9.30
2015,05,04,07,38,9.30
2015,05,04,07,39,9.30
2015,05,04,07,40,9.40
2015,05,04,07,41,9.40
2015,05,04,07,42,9.40
2015,05,04,07,43,9.40
2015,05,04,07,44,9.50
2015,05,04,07,45,9.50
2015,05,04,07,46,9.50
2015,05,04,07,47,9.50
2015,05,04,07,48,9.50
2015,05,04,07,49,9.50
2015,05,04,07,50,9.60
2015,05,04,07,51,9.60
2015,05,04,07,52,9.60
2015,05,04,07,53,9.60
2015,05,04,07,54,9.60
2015,05,04,07,55,9.60
2015,05,04,07,56,9.60
2015,05,04,07,57,9.70
2015,05,04,07,58,9.70
2015,05,04,07,59,9.70
2015,05,04,08,00,9.70
2015,05,04,08,01,9.70
2015,05,04,08,02,9.70
2015,05,04,08,03,9.80
2015,05,04,08,04,9.80
2015,05,04,08,05,9.80
2015,05,04,08,06,9.80
2015,05,04,08,07,9.80
2015,05,04,08,08,9.80
2015,05,04,08,09,9.80
2015,05,04,08,10,9.80
2015,05,04,08,11,9.80
2015,05,04,08,12,9.80
2015,05,04,08,13,9.80
2015,05,04,08,14,9.80
2015,05,04,08,15,9.80
2015,05,04,08,16,9.80
2015,05,04,08,17,9.80
2015,05,04,08,18,9.90
2015,05,04,08,19,9.90
2015,05,04,08,20,9.90
2015,05,04,08,21,9.90
2015,05,04,08,22,9.90
2015,05,04,08,23,9.90
2015,05,04,08,24,10.00
2015,05,04,08,25,10.00
2015,05,04,08,26,10.00
2015,05,04,08,27,10.00
2015,05,04,08,28,10.10
2015,05,04,08,29,10.10
2015,05,04,08,30,10.10
2015,05,04,08,31,10.10
2015,05,04,08,32,10.20
2015,05,04,08,33,10.20
2015,05,04,08,34,10.20
2015,05,04,08,35,10.20
2015,05,04,08,36,10.20
2015,05,04,08,37,10.20
2015,05,04,08,38,10.20
2015,05,04,08,39,10.30
2015,05,04,08,40,10.30
2015,05,04,08,41,10.30
2015,05,04,08,42,10.30
2015,05,04,08,43,10.40
2015,05,04,08,44,10.40
2015,05,04,08,45,10.40
2015,05,04,08,46,10.50
2015,05,04,08,47,10.50
2015,05,04,08,48,10.50
2015,05,04,08,49,10.40
2015,05,04,08,50,10.40
2015,05,04,08,51,10.40
2015,05,04,08,52,10.40
2015,05,04,08,53,10.30
2015,05,04,08,54,10.30
2015,05,04,08,55,10.30
2015,05,04,08,56,10.30
2015,05,04,08,57,10.30
2015,05,04,08,58,10.30
2015,05,04,08,59,10.30
2015,05,04,09,00,10.30
2015,05,04,09,01,10.30
2015,05,04,09,02,10.30
2015,05,04,09,03,10.20
2015,05,04,09,04,10.20
2015,05,04,09,05,10.20
2015,05,04,09,06,10.20
2015,05,04,09,07,10.20
2015,05,04,09,08,10.20
2015,05,04,09,09,10.10
2015,05,04,09,10,10.10
2015,05,04,09,11,10.10
2015,05,04,09,12,10.10
2015,05,04,09,13,10.10
2015,05,04,09,14,10.10
2015,05,04,09,15,10.10
2015,05,04,09,16,10.00
2015,05,04,09,17,10.00
2015,05,04,09,18,10.00
2015,05,04,09,19,10.00
2015,05,04,09,20,10.00
2015,05,04,09,21,10.10
2015,05,04,09,22,10.00
2015,05,04,09,23,10.00
2015,05,04,09,24,10.00
2015,05,04,09,25,10.00
2015,05,04,09,26,10.00
2015,05,04,09,27,10.00
2015,05,04,09,28,10.00
2015,05,04,09,29,10.00
2015,05,04,09,30,10.00
2015,05,04,09,31,10.00
2015,05,04,09,32,10.00
2015,05,04,09,33,10.00
2015,05,04,09,34,10.00
2015,05,04,09,35,10.00
2015,05,04,09,36,10.00
2015,05,04,09,37,10.00
2015,05,04,09,38,10.00
2015,05,04,09,39,10.00
2015,05,04,09,40,10.00
2015,05,04,09,41,10.00
2015,05,04,09,42,10.00
2015,05,04,09,43,10.00
2015,05,04,09,44,10.00
2015,05,04,09,45,10.00
2015,05,04,09,46,10.10
2015,05,04,09,47,10.10
2015,05,04,09,48,10.10
2015,05,04,09,49,10.10
2015,05,04,09,50,10.10
2015,05,04,09,51,10.10
2015,05,04,09,52,10.10
2015,05,04,09,53,10.10
2015,05,04,09,54,10.10
2015,05,04,09,55,10.10
2015,05,04,09,56,10.10
2015,05,04,09,57,10.20
2015,05,04,09,58,10.20
2015,05,04,09,59,10.20
2015,05,04,10,00,10.20
2015,05,04,10,01,10.30
2015,05,04,10,02,10.30
2015,05,04,10,03,10.30
2015,05,04,10,04,10.30
2015,05,04,10,05,10.30
2015,05,04,10,06,10.30
2015,05,04,10,07,10.30
2015,05,04,10,08,10.30
2015,05,04,10,09,10.30
2015,05,04,10,10,10.40
2015,05,04,10,11,10.40
2015,05,04,10,12,10.40
2015,05,04,10,13,10.40
2015,05,04,10,14,10.50
2015,05,04,10,15,10.50
2015,05,04,10,16,10.50
2015,05,04,10,17,10.50
2015,05,04,10,18,10.50
2015,05,04,10,19,10.50
2015,05,04,10,20,10.50
2015,05,04,10,21,10.50
2015,05,04,10,22,10.50
2015,05,04,10,23,10.50
2015,05,04,10,24,10.50
2015,05,04,10,25,10.50
2015,05,04,10,26,10.60
2015,05,04,10,27,10.60
2015,05,04,10,28,10.60
2015,05,04,10,29,10.60
2015,05,04,10,30,10.60
2015,05,04,10,31,10.60
2015,05,04,10,32,10.60
2015,05,04,10,33,10.60
2015,05,04,10,34,10.60
2015,05,04,10,35,10.60
2015,05,04,10,36,10.60
2015,05,04,10,37,10.50
2015,05,04,10,38,10.50
2015,05,04,10,39,10.40
2015,05,04,10,40,10.40
2015,05,04,10,41,10.40
2015,05,04,10,42,10.40
2015,05,04,10,43,10.40
2015,05,04,10,44,10.40
2015,05,04,10,45,10.40
2015,05,04,10,46,10.40
2015,05,04,10,47,10.40
2015,05,04,10,48,10.40
2015,05,04,10,49,10.40
2015,05,04,10,50,10.40
2015,05,04,10,51,10.30
2015,05,04,10,52,10.30
2015,05,04,10,53,10.30
2015,05,04,10,54,10.20
2015,05,04,10,55,10.20
2015,05,04,10,56,10.10
2015,05,04,10,57,10.10
2015,05,04,10,58,10.00
2015,05,04,10,59,10.00
2015,05,04,11,00,9.90
2015,05,04,11,01,9.90
2015,05,04,11,02,9.80
2015,05,04,11,03,9.80
2015,05,04,11,04,9.70
2015,05,04,11,05,9.60
2015,05,04,11,06,9.50
2015,05,04,11,07,9.40
2015,05,04,11,08,9.40
2015,05,04,11,09,9.30
2015,05,04,11,10,9.20
2015,05,04,11,11,9.20
2015,05,04,11,12,9.10
2015,05,04,11,13,9.10
2015,05,04,11,14,9.00
2015,05,04,11,15,9.00
2015,05,04,11,16,8.90
2015,05,04,11,17,8.90
2015,05,04,11,18,8.90
2015,05,04,11,19,8.80
2015,05,04,11,20,8.80
2015,05,04,11,21,8.70
2015,05,04,11,22,8.70
2015,05,04,11,23,8.60
2015,05,04,11,24,8.60
2015,05,04,11,25,8.60
2015,05,04,11,26,8.60
2015,05,04,11,27,8.50
2015,05,04,11,28,8.50
2015,05,04,11,29,8.40
2015,05,04,11,30,8.40
2015,05,04,11,31,8.40
2015,05,04,11,32,8.40
2015,05,04,11,33,8.30
2015,05,04,11,34,8.30
2015,05,04,11,35,8.20
2015,05,04,11,36,8.20
2015,05,04,11,37,8.20
2015,05,04,11,38,8.10
2015,05,04,11,39,8.10
2015,05,04,11,40,8.10
2015,05,04,11,41,8.10
2015,05,04,11,42,8.10
2015,05,04,11,43,8.10
2015,05,04,11,44,8.10
2015,05,04,11,45,8.10
2015,05,04,11,46,8.10
2015,05,04,11,47,8.10
2015,05,04,11,48,8.10
2015,05,04,11,49,8.10
2015,05,04,11,50,8.10
2015,05,04,11,51,8.10
2015,05,04,11,52,8.10
2015,05,04,11,53,8.20
2015,05,04,11,54,8.20
2015,05,04,11,55,8.20
2015,05,04,11,56,8.10
2015,05,04,11,57,8.10
2015,05,04,11,58,8.10
2015,05,04,11,59,8.10
2015,05,04,12,00,8.10
2015,05,04,12,01,8.10
2015,05,04,12,02,8.10
2015,05,04,12,03,8.10
2015,05,04,12,04,8.10
2015,05,04,12,05,8.20
2015,05,04,12,06,8.20
2015,05,04,12,07,8.20
2015,05,04,12,08,8.20
2015,05,04,12,09,8.20
2015,05,04,12,10,8.20
2015,05,04,12,11,8.20
2015,05,04,12,12,8.30
2015,05,04,12,13,8.30
2015,05,04,12,14,8.30
2015,05,04,12,15,8.30
2015,05,04,12,16,8.30
2015,05,04,12,17,8.30
2015,05,04,12,18,8.30
2015,05,04,12,19,8.30
2015,05,04,12,20,8.30
2015,05,04,12,21,8.30
2015,05,04,12,22,8.30
2015,05,04,12,23,8.30
2015,05,04,12,24,8.30
2015,05,04,12,25,8.30
2015,05,04,12,26,8.30
2015,05,04,12,27,8.30
2015,05,04,12,28,8.30
2015,05,04,12,29,8.30
2015,05,04,12,30,8.30
2015,05,04,12,31,8.30
2015,05,04,12,32,8.30
2015,05,04,12,33,8.30
2015,05,04,12,34,8.20
2015,05,04,12,35,8.20
2015,05,04,12,36,8.20
2015,05,04,12,37,8.20
2015,05,04,12,38,8.20
2015,05,04,12,39,8.10
2015,05,04,12,40,8.10
2015,05,04,12,41,8.10
2015,05,04,12,42,8.10
2015,05,04,12,43,8.10
2015,05,04,12,44,8.10
2015,05,04,12,45,8.20
2015,05,04,12,46,8.20
2015,05,04,12,47,8.20
2015,05,04,12,48,8.20
2015,05,04,12,49,8.10
2015,05,04,12,50,8.10
2015,05,04,12,51,8.10
2015,05,04,12,52,8.10
2015,05,04,12,53,8.10
2015,05,04,12,54,8.10
2015,05,04,12,55,8.00
2015,05,04,12,56,8.00
2015,05,04,12,57,8.00
2015,05,04,12,58,7.90
2015,05,04,12,59,7.90
2015,05,04,13,00,7.90
2015,05,04,13,01,7.90
2015,05,04,13,02,7.90
2015,05,04,13,03,7.90
2015,05,04,13,04,7.90
2015,05,04,13,05,7.90
2015,05,04,13,06,7.90
2015,05,04,13,07,7.80
2015,05,04,13,08,7.80
2015,05,04,13,09,7.80
2015,05,04,13,10,7.80
2015,05,04,13,11,7.80
2015,05,04,13,12,7.80
2015,05,04,13,13,7.80
2015,05,04,13,14,7.70
2015,05,04,13,15,7.70
2015,05,04,13,16,7.70
2015,05,04,13,17,7.70
2015,05,04,13,18,7.70
2015,05,04,13,19,7.70
2015,05,04,13,20,7.70
2015,05,04,13,21,7.70
2015,05,04,13,22,7.60
2015,05,04,13,23,7.60
2015,05,04,13,24,7.60
2015,05,04,13,25,7.60
2015,05,04,13,26,7.60
2015,05,04,13,27,7.60
2015,05,04,13,28,7.60
2015,05,04,13,29,7.70
2015,05,04,13,30,7.70
2015,05,04,13,31,7.70
2015,05,04,13,32,7.70
2015,05,04,13,33,7.70
2015,05,04,13,34,7.70
2015,05,04,13,35,7.80
2015,05,04,13,36,7.80
2015,05,04,13,37,7.70
2015,05,04,13,38,7.70
2015,05,04,13,39,7.70
2015,05,04,13,40,7.70
2015,05,04,13,41,7.70
2015,05,04,13,42,7.70
2015,05,04,13,43,7.70
2015,05,04,13,44,7.70
2015,05,04,13,45,7.70
2015,05,04,13,46,7.70
2015,05,04,13,47,7.80
2015,05,04,13,48,7.80
2015,05,04,13,49,7.80
2015,05,04,13,50,7.80
2015,05,04,13,51,7.80
2015,05,04,13,52,7.80
2015,05,04,13,53,7.80
2015,05,04,13,54,7.70
2015,05,04,13,55,7.70
2015,05,04,13,56,7.70
2015,05,04,13,57,7.70
2015,05,04,13,58,7.60
2015,05,04,13,59,7.60
2015,05,04,14,00,7.60
2015,05,04,14,01,7.60
2015,05,04,14,02,7.60
2015,05,04,14,03,7.50
2015,05,04,14,04,7.50
2015,05,04,14,05,7.40
2015,05,04,14,06,7.40
2015,05,04,14,07,7.40
2015,05,04,14,08,7.40
2015,05,04,14,09,7.30
2015,05,04,14,10,7.30
2015,05,04,14,11,7.30
2015,05,04,14,12,7.30
2015,05,04,14,13,7.30
2015,05,04,14,14,7.30
2015,05,04,14,15,7.30
2015,05,04,14,16,7.40
2015,05,04,14,17,7.40
2015,05,04,14,18,7.40
2015,05,04,14,19,7.40
2015,05,04,14,20,7.40
2015,05,04,14,21,7.50
2015,05,04,14,22,7.50
2015,05,04,14,23,7.60
2015,05,04,14,24,7.60
2015,05,04,14,25,7.70
2015,05,04,14,26,7.70
2015,05,04,14,27,7.70
2015,05,04,14,28,7.70
2015,05,04,14,29,7.70
2015,05,04,14,30,7.70
2015,05,04,14,31,7.80
2015,05,04,14,32,7.80
2015,05,04,14,33,7.80
2015,05,04,14,34,7.80
2015,05,04,14,35,7.90
2015,05,04,14,36,7.90
2015,05,04,14,37,7.90
2015,05,04,14,38,8.00
2015,05,04,14,39,8.10
2015,05,04,14,40,8.10
2015,05,04,14,41,8.10
2015,05,04,14,42,8.10
2015,05,04,14,43,8.10
2015,05,04,14,44,8.10
2015,05,04,14,45,8.10
2015,05,04,14,46,8.10
2015,05,04,14,47,8.10
2015,05,04,14,48,8.10
2015,05,04,14,49,8.20
2015,05,04,14,50,8.20
2015,05,04,14,51,8.20
2015,05,04,14,52,8.30
2015,05,04,14,53,8.30
2015,05,04,14,54,8.30
2015,05,04,14,55,8.40
2015,05,04,14,56,8.40
2015,05,04,14,57,8.40
2015,05,04,14,58,8.40
2015,05,04,14,59,8.40
2015,05,04,15,00,8.40
2015,05,04,15,01,8.50
2015,05,04,15,02,8.50
2015,05,04,15,03,8.40
2015,05,04,15,04,8.40
2015,05,04,15,05,8.40
2015,05,04,15,06,8.40
2015,05,04,15,07,8.40
2015,05,04,15,08,8.40
2015,05,04,15,09,8.40
2015,05,04,15,10,8.40
2015,05,04,15,11,8.40
2015,05,04,15,12,8.40
2015,05,04,15,13,8.40
2015,05,04,15,14,8.40
2015,05,04,15,15,8.40
2015,05,04,15,16,8.30
2015,05,04,15,17,8.30
2015,05,04,15,18,8.30
2015,05,04,15,19,8.30
2015,05,04,15,20,8.20
2015,05,04,15,21,8.20
2015,05,04,15,22,8.20
2015,05,04,15,23,8.10
2015,05,04,15,24,8.10
2015,05,04,15,25,8.10
2015,05,04,15,26,8.10
2015,05,04,15,27,8.00
2015,05,04,15,28,8.00
2015,05,04,15,29,8.00
2015,05,04,15,30,7.90
2015,05,04,15,31,7.90
2015,05,04,15,32,7.90
2015,05,04,15,33,7.90
2015,05,04,15,34,7.90
2015,05,04,15,35,7.90
2015,05,04,15,36,7.80
2015,05,04,15,37,7.80
2015,05,04,15,38,7.80
2015,05,04,15,39,7.90
2015,05,04,15,40,7.90
2015,05,04,15,41,7.90
2015,05,04,15,42,8.00
2015,05,04,15,43,8.00
2015,05,04,15,44,8.10
2015,05,04,15,45,8.10
2015,05,04,15,46,8.20
2015,05,04,15,47,8.30
2015,05,04,15,48,8.40
2015,05,04,15,49,8.50
2015,05,04,15,50,8.60
2015,05,04,15,51,8.60
2015,05,04,15,52,8.70
2015,05,04,15,53,8.70
2015,05,04,15,54,8.80
2015,05,04,15,55,8.80
2015,05,04,15,56,8.80
2015,05,04,15,57,8.80
2015,05,04,15,58,8.80
2015,05,04,15,59,8.80
2015,05,04,16,00,8.80
2015,05,04,16,01,8.70
2015,05,04,16,02,8.70
2015,05,04,16,03,8.80
2015,05,04,16,04,8.80
2015,05,04,16,05,8.80
2015,05,04,16,06,8.70
2015,05,04,16,07,8.70
2015,05,04,16,08,8.70
2015,05,04,16,09,8.70
2015,05,04,16,10,8.60
2015,05,04,16,11,8.60
2015,05,04,16,12,8.60
2015,05,04,16,13,8.50
2015,05,04,16,14,8.50
2015,05,04,16,15,8.50
2015,05,04,16,16,8.50
2015,05,04,16,17,8.50
2015,05,04,16,18,8.50
2015,05,04,16,19,8.50
2015,05,04,16,20,8.50
2015,05,04,16,21,8.50
2015,05,04,16,22,8.50
2015,05,04,16,23,8.50
2015,05,04,16,24,8.60
2015,05,04,16,25,8.60
2015,05,04,16,26,8.60
2015,05,04,16,27,8.70
2015,05,04,16,28,8.80
2015,05,04,16,29,8.80
2015,05,04,16,30,8.90
2015,05,04,16,31,8.90
2015,05,04,16,32,8.90
2015,05,04,16,33,8.90
2015,05,04,16,34,8.90
2015,05,04,16,35,8.90
2015,05,04,16,36,9.00
2015,05,04,16,37,9.00
2015,05,04,16,38,9.00
2015,05,04,16,39,9.00
2015,05,04,16,40,8.90
2015,05,04,16,41,8.90
2015,05,04,16,42,8.90
2015,05,04,16,43,8.90
2015,05,04,16,44,8.90
2015,05,04,16,45,8.90
2015,05,04,16,46,8.90
2015,05,04,16,47,8.90
2015,05,04,16,48,8.80
2015,05,04,16,49,8.80
2015,05,04,16,50,8.80
2015,05,04,16,51,8.70
2015,05,04,16,52,8.70
2015,05,04,16,53,8.70
2015,05,04,16,54,8.70
2015,05,04,16,55,8.60
2015,05,04,16,56,8.60
2015,05,04,16,57,8.60
2015,05,04,16,58,8.50
2015,05,04,16,59,8.50
2015,05,04,17,00,8.40
2015,05,04,17,01,8.40
2015,05,04,17,02,8.30
2015,05,04,17,03,8.20
2015,05,04,17,04,8.10
2015,05,04,17,05,8.00
2015,05,04,17,06,7.90
2015,05,04,17,07,7.80
2015,05,04,17,08,7.60
2015,05,04,17,09,7.50
2015,05,04,17,10,7.50
2015,05,04,17,11,7.40
2015,05,04,17,12,7.40
2015,05,04,17,13,7.30
2015,05,04,17,14,7.30
2015,05,04,17,15,7.30
2015,05,04,17,16,7.30
2015,05,04,17,17,7.30
2015,05,04,17,18,7.30
2015,05,04,17,19,7.30
2015,05,04,17,20,7.30
2015,05,04,17,21,7.20
2015,05,04,17,22,7.20
2015,05,04,17,23,7.20
2015,05,04,17,24,7.20
2015,05,04,17,25,7.20
2015,05,04,17,26,7.20
2015,05,04,17,27,7.20
2015,05,04,17,28,7.20
2015,05,04,17,29,7.30
2015,05,04,17,30,7.30
2015,05,04,17,31,7.30
2015,05,04,17,32,7.30
2015,05,04,17,33,7.30
2015,05,04,17,34,7.30
2015,05,04,17,35,7.30
2015,05,04,17,36,7.30
2015,05,04,17,37,7.30
2015,05,04,17,38,7.30
2015,05,04,17,39,7.30
2015,05,04,17,40,7.30
2015,05,04,17,41,7.40
2015,05,04,17,42,7.50
2015,05,04,17,43,7.50
2015,05,04,17,44,7.60
2015,05,04,17,45,7.70
2015,05,04,17,46,7.70
2015,05,04,17,47,7.80
2015,05,04,17,48,7.80
2015,05,04,17,49,7.80
2015,05,04,17,50,7.80
2015,05,04,17,51,7.90
2015,05,04,17,52,7.90
2015,05,04,17,53,7.90
2015,05,04,17,54,7.90
2015,05,04,17,55,7.90
2015,05,04,17,56,7.90
2015,05,04,17,57,7.90
2015,05,04,17,58,7.90
2015,05,04,17,59,7.90